{"data":{"norad_id":68058,"epoch":"2026-05-25T04:26:00.589920Z","epoch_age_seconds":56308,"freshness":"FRESH","line1":"1 68058U 26041U   26145.18472905  .00014583  00000+0  50339-3 0  9997","line2":"2 68058  53.1575  54.3225 0001011 112.8359 247.2749 15.30207746 13103","mean_motion":15.30207746,"eccentricity":0.0001011,"inclination_deg":53.1575,"raan_deg":54.3225,"arg_perigee_deg":112.8359,"mean_anomaly_deg":247.2749,"bstar":0.00050339,"rev_number":1310,"period_min":94.104869339748,"perigee_km":474.49906980114,"apogee_km":475.88481291308,"semimajor_km":6853.3289413571,"source":"CELESTRAK","updated_at":"2026-05-25T13:38:21.814401Z"}}